AEHF-4 (USA 288)

Last updated on Tue Sep 22 2026 00:03:14 GMT+0000 (Coordinated Universal Time)

1 43651U 18079A 26264.54713762 -.00000278 00000+0 00000+0 0 9995 2 43651 1.4217 358.6137 0068454 359.6446 131.5601 1.00276660 29267
UTC large
Height (km)
Speed (km/s)
/
Latitude / Longitude
Inclination (degrees)
Orbital Period (minutes)
Azimuth
Elevation
Range (km)
Doppler Factor

Next 0 passes for location: London (51.5072 / 0.1276)

No passes found over London.
AEHF-4 (USA 288)